#timestamp,LO_Frequency,Hit,StdDev 
1501581615.1,286046998.5,N,1.1
1501581616.0,286046998.5,N,1.2
1501581635.8,286047001.1,N,1.1
1501581655.7,286046998.4,N,1.2
1501581675.5,286046998.6,N,1.2
1501581695.4,286046998.1,N,1.3
1501581715.2,286047000.6,N,1.3
1501581735.0,286046998.4,N,1.3
1501581735.9,286046998.4,N,1.3
1501581755.8,286047000.8,N,1.3
1501581775.6,286047000.4,N,1.3
1501581795.5,286047000.7,N,1.2
1501581815.3,286046998.1,N,1.3
1501581835.1,286046998.3,N,1.3
1501581855.9,286046998.2,N,1.3
1501581875.7,286047000.5,N,1.3
1501581895.6,286047000.4,N,1.0
1501581915.4,286047000.9,N,1.0
1501581935.2,286047000.9,N,1.0
1501581955.1,286046998.5,N,1.1
1501581956.0,286046998.5,N,1.1
1501581975.8,286046999.3,N,1.1
1501581995.6,286046998.3,N,1.1
1501582015.5,286046998.3,N,1.1
1501582035.3,286046999.6,N,1.1
1501582055.2,286046999.4,N,1.1
1501582075.0,286046999.3,N,1.1
1501582075.9,286046999.3,N,1.1
1501582095.8,286046998.9,N,1.1
1501582115.6,286046999.1,N,1.0
1501582135.4,286046999.2,N,1.0
1501582155.3,286046998.7,N,1.0
1501582175.1,286046998.1,N,1.0
1501582195.9,286047001.1,N,1.0
1501582215.7,286047000.5,N,1.0
1501582235.5,286047002.8,N,1.2
1501582255.4,286047000.0,N,1.2
1501582275.2,286046999.8,N,1.1
1501582295.0,286046999.8,N,1.1
1501582295.9,286046999.8,N,1.1
1501582315.8,286047000.1,N,1.1
1501582335.6,286046999.7,N,1.1
1501582355.5,286046999.8,N,1.0
1501582375.3,286046999.9,N,1.0
1501582395.1,286047000.0,N,1.0
1501582415.9,286047001.7,N,1.0
1501582435.7,286047002.4,N,1.1
1501582455.6,286047002.6,N,1.2
1501582475.4,286047002.1,N,1.3
1501582495.2,286047002.5,N,1.3
1501582515.1,286047001.9,N,1.3
1501582516.0,286047001.9,N,1.4
1501582535.8,286047002.5,N,1.4
1501582555.7,286047002.1,N,1.4
1501582575.5,286047002.4,N,1.4
1501582595.3,286047002.1,N,1.4
1501582615.2,286047002.8,N,1.4
1501582635.0,286047000.2,N,1.4
1501582635.9,286047000.2,N,1.4
1501582655.8,286046999.8,N,1.3
1501582675.6,286047000.3,N,1.3
1501582695.4,286047000.9,N,1.2
1501582715.3,286047001.2,N,1.1
1501582735.1,286047000.8,N,1.1
1501582755.8,286046998.7,N,1.2
1501582775.7,286046999.0,N,1.2
1501582795.5,286046999.0,N,1.2
1501582815.4,286046998.6,N,1.3
1501582835.2,286047001.0,N,1.3
1501582855.0,286047000.5,N,1.3
1501582855.9,286047000.5,N,1.3
1501582875.8,286047000.6,N,1.2
1501582895.6,286046998.8,N,1.3
1501582915.5,286046998.5,N,1.3
1501582935.3,286047000.9,N,1.3
1501582955.1,286047001.2,N,1.3
1501582975.9,286046998.1,N,1.4
1501582995.7,286047000.7,N,1.3
1501583015.6,286046999.9,N,1.3
1501583035.4,286047000.2,N,1.3
1501583055.2,286046999.7,N,1.3
1501583075.1,286046999.9,N,1.2
1501583076.0,286046999.9,N,1.2
1501583095.8,286047000.0,N,1.1
1501583115.6,286046998.1,N,1.1
1501583135.5,286046998.3,N,1.1
1501583155.3,286046999.0,N,1.0
1501583175.2,286046999.5,N,1.0
1501583195.9,286046998.9,N,1.0
1501583215.7,286046998.3,N,1.0
1501583235.6,286046998.5,N,1.0
1501583255.4,286046998.5,N,1.0
1501583275.3,286046998.7,N,1.0
1501583295.1,286046998.4,N,1.0
1501583296.0,286046998.4,N,1.0
1501583315.8,286046998.3,N,1.0
1501583335.7,286046998.4,N,1.0
1501583355.5,286047001.1,N,1.0
1501583375.4,286047000.4,N,1.0
1501583395.2,286047000.8,N,1.0
1501583415.0,286046998.5,N,1.0
1501583415.9,286046998.5,N,1.0
1501583435.8,286047000.7,N,1.0
1501583455.6,286046998.2,N,1.0
1501583475.4,286046998.5,N,1.0
1501583495.3,286046998.7,N,0.9
1501583515.1,286047000.7,N,1.0
1501583535.9,286046998.7,N,0.9
1501583555.7,286046998.3,N,0.9
1501583575.5,286046998.8,N,0.9
1501583595.4,286047001.0,N,1.0
1501583615.2,286047000.5,N,1.0
1501583635.1,286046998.6,N,1.0
1501583636.0,286046998.6,N,1.0
1501583655.8,286046996.5,P,1.3
1501583675.6,286047001.1,N,1.9
1501583695.5,286047000.7,N,1.8
1501583715.3,286047001.2,N,1.8
1501583735.2,286047001.1,N,1.7
1501583755.9,286046998.1,N,1.7
1501583775.7,286046998.5,N,1.6
1501583795.6,286047001.0,N,1.6
1501583815.4,286046998.1,N,1.6
1501583835.3,286046998.8,N,1.5
1501583855.1,286046998.8,N,1.5
1501583856.0,286046998.8,N,1.4
1501583875.8,286046998.7,N,1.4
1501583895.7,286046998.8,N,1.4
1501583915.5,286046996.5,N,1.5
1501583935.3,286046996.5,N,1.6
1501583955.2,286046996.9,N,1.6
1501583975.0,286046996.6,N,1.6
1501583975.9,286046996.6,N,1.6
1501583995.8,286046999.4,N,1.6
1501584015.6,286046999.6,N,1.6
1501584035.4,286046999.0,N,1.6
1501584055.3,286046997.3,N,1.6
1501584075.1,286046997.7,N,1.5
1501584095.9,286046997.5,N,1.5
1501584115.7,286046997.7,N,1.5
1501584135.5,286046999.1,N,1.5
1501584155.4,286046996.7,N,1.5
1501584175.2,286046997.3,N,1.5
1501584195.1,286046994.9,P,1.8
1501584196.0,286046994.9,N,1.7
1501584215.8,286046997.1,N,1.5
1501584235.6,286046997.3,N,1.4
1501584255.5,286046999.6,N,1.7
1501584275.3,286046996.5,N,1.6
1501584295.2,286046999.4,N,1.7
1501584315.9,286046996.6,N,1.6
1501584335.7,286046996.5,N,1.6
1501584355.6,286046996.6,N,1.5
1501584375.4,286046997.0,N,1.4
1501584395.2,286046996.7,N,1.4
1501584415.1,286046997.4,N,1.3
1501584416.0,286046997.4,N,1.3
1501584435.8,286046997.7,N,1.3
1501584455.7,286046996.6,N,1.2
1501584475.5,286046996.6,N,1.2
1501584495.3,286046996.9,N,1.2
1501584515.2,286046997.3,N,1.1
1501584535.0,286046997.2,N,1.1
1501584535.9,286046997.2,N,1.1
1501584555.8,286046997.1,N,1.1
1501584575.6,286046997.0,N,1.0
1501584595.4,286046997.3,N,1.0
1501584615.3,286046996.7,P,0.2
1501584635.1,286047000.8,P,1.8
1501584655.9,286046999.8,N,1.7
1501584675.7,286046999.9,N,1.6
1501584695.5,286046999.8,N,1.5
1501584715.4,286046999.8,N,1.5
1501584735.2,286047000.6,N,1.4
1501584755.1,286047000.6,N,1.4
1501584756.0,286047000.6,N,1.4
1501584775.8,286046998.6,N,1.4
1501584795.6,286046999.4,N,1.3
1501584815.5,286046998.2,N,1.3
1501584835.3,286046998.5,N,1.3
1501584855.1,286046999.0,N,1.2
1501584875.9,286046998.7,N,1.2
1501584895.7,286047000.3,N,1.2
1501584915.6,286046998.2,N,1.2
1501584935.4,286046998.1,N,1.2
1501584955.2,286046998.8,N,1.2
1501584975.1,286046996.6,N,1.2
1501584976.0,286046996.6,N,1.3
1501584995.8,286046999.6,N,1.3
1501585015.7,286046998.9,N,1.3
1501585035.5,286046998.4,N,1.3
1501585055.3,286047000.9,N,1.3
1501585075.2,286047000.4,N,1.3
1501585095.0,286047001.0,N,1.3
1501585095.9,286047001.0,N,1.3
1501585115.8,286047000.9,N,1.3
1501585135.6,286047000.9,N,1.3
1501585155.4,286046998.4,N,1.2
1501585175.3,286047000.9,N,1.2
1501585195.1,286046999.0,N,1.2
